User: anonymous   Login
Location: Arcusa
(42.3167°N, 0.0833°W)
Time: 23:02:17
(UTC+00:00)
Language:

Cosmos 923 Rocket - Orbit

View from above orbital plane
View from above orbital plane
View from above satellite
View from above satellite

Ground track
Ground track

The orbit data is extracted from the following two-line orbital elements,

1 10121U 77059B   20093.36378851  .00000012  00000-0  13116-4 0  9997
2 10121  74.0475  60.4583 0018620 164.4410 195.7319 14.35936552236286
Epoch (UTC): 02 April 2020 08:43:51
Eccentricity: 0.0018620
inclination: 74.0475°
perigee height: 758 km
apogee height: 785 km
right ascension of ascending node: 60.4583°
argument of perigee: 164.4410°
revolutions per day: 14.35936552
mean anomaly at epoch: 195.7319°
orbit number at epoch: 23628

The dashed part of the orbit path shows where the satellite is in the earth's shadow,  

DLR